Year,Month,Day,Hour,Minute,Value (Times are PST for temperature in C)
2017,05,23,00,00,16.90
2017,05,23,00,01,16.90
2017,05,23,00,02,16.90
2017,05,23,00,03,16.90
2017,05,23,00,04,16.90
2017,05,23,00,05,16.90
2017,05,23,00,06,16.90
2017,05,23,00,07,16.80
2017,05,23,00,08,16.80
2017,05,23,00,09,16.80
2017,05,23,00,10,16.80
2017,05,23,00,11,16.80
2017,05,23,00,12,16.80
2017,05,23,00,13,16.80
2017,05,23,00,14,16.80
2017,05,23,00,15,16.80
2017,05,23,00,16,16.70
2017,05,23,00,17,16.70
2017,05,23,00,18,16.70
2017,05,23,00,19,16.70
2017,05,23,00,20,16.70
2017,05,23,00,21,16.70
2017,05,23,00,22,16.70
2017,05,23,00,23,16.70
2017,05,23,00,24,16.60
2017,05,23,00,25,16.60
2017,05,23,00,26,16.60
2017,05,23,00,27,16.60
2017,05,23,00,28,16.60
2017,05,23,00,29,16.50
2017,05,23,00,30,16.50
2017,05,23,00,31,16.50
2017,05,23,00,32,16.40
2017,05,23,00,33,16.40
2017,05,23,00,34,16.40
2017,05,23,00,35,16.40
2017,05,23,00,36,16.40
2017,05,23,00,37,16.40
2017,05,23,00,38,16.30
2017,05,23,00,39,16.30
2017,05,23,00,40,16.30
2017,05,23,00,41,16.30
2017,05,23,00,42,16.30
2017,05,23,00,43,16.30
2017,05,23,00,44,16.30
2017,05,23,00,45,16.20
2017,05,23,00,46,16.20
2017,05,23,00,47,16.20
2017,05,23,00,48,16.20
2017,05,23,00,49,16.20
2017,05,23,00,50,16.20
2017,05,23,00,51,16.30
2017,05,23,00,52,16.20
2017,05,23,00,53,16.20
2017,05,23,00,54,16.20
2017,05,23,00,55,16.20
2017,05,23,00,56,16.20
2017,05,23,00,57,16.20
2017,05,23,00,58,16.20
2017,05,23,00,59,16.20
2017,05,23,01,00,16.10
2017,05,23,01,01,16.10
2017,05,23,01,02,16.00
2017,05,23,01,03,16.00
2017,05,23,01,04,15.90
2017,05,23,01,05,15.90
2017,05,23,01,06,15.90
2017,05,23,01,07,15.80
2017,05,23,01,08,15.80
2017,05,23,01,09,15.80
2017,05,23,01,10,15.80
2017,05,23,01,11,15.70
2017,05,23,01,12,15.70
2017,05,23,01,13,15.70
2017,05,23,01,14,15.70
2017,05,23,01,15,15.70
2017,05,23,01,16,15.70
2017,05,23,01,17,15.70
2017,05,23,01,18,15.70
2017,05,23,01,19,15.70
2017,05,23,01,20,15.60
2017,05,23,01,21,15.60
2017,05,23,01,22,15.60
2017,05,23,01,23,15.60
2017,05,23,01,24,15.60
2017,05,23,01,25,15.60
2017,05,23,01,26,15.60
2017,05,23,01,27,15.60
2017,05,23,01,28,15.60
2017,05,23,01,29,15.70
2017,05,23,01,30,15.70
2017,05,23,01,31,15.70
2017,05,23,01,32,15.70
2017,05,23,01,33,15.70
2017,05,23,01,34,15.70
2017,05,23,01,35,15.70
2017,05,23,01,36,15.70
2017,05,23,01,37,15.70
2017,05,23,01,38,15.60
2017,05,23,01,39,15.60
2017,05,23,01,40,15.60
2017,05,23,01,41,15.60
2017,05,23,01,42,15.60
2017,05,23,01,43,15.60
2017,05,23,01,44,15.50
2017,05,23,01,45,15.50
2017,05,23,01,46,15.50
2017,05,23,01,47,15.40
2017,05,23,01,48,15.40
2017,05,23,01,49,15.40
2017,05,23,01,50,15.40
2017,05,23,01,51,15.40
2017,05,23,01,52,15.40
2017,05,23,01,53,15.40
2017,05,23,01,54,15.30
2017,05,23,01,55,15.30
2017,05,23,01,56,15.30
2017,05,23,01,57,15.30
2017,05,23,01,58,15.30
2017,05,23,01,59,15.20
2017,05,23,02,00,15.20
2017,05,23,02,01,15.20
2017,05,23,02,02,15.20
2017,05,23,02,03,15.10
2017,05,23,02,04,15.10
2017,05,23,02,05,15.00
2017,05,23,02,06,15.00
2017,05,23,02,07,14.90
2017,05,23,02,08,14.90
2017,05,23,02,09,14.80
2017,05,23,02,10,14.80
2017,05,23,02,11,14.70
2017,05,23,02,12,14.70
2017,05,23,02,13,14.70
2017,05,23,02,14,14.70
2017,05,23,02,15,14.70
2017,05,23,02,16,14.70
2017,05,23,02,17,14.70
2017,05,23,02,18,14.60
2017,05,23,02,19,14.60
2017,05,23,02,20,14.60
2017,05,23,02,21,14.50
2017,05,23,02,22,14.50
2017,05,23,02,23,14.50
2017,05,23,02,24,14.40
2017,05,23,02,25,14.40
2017,05,23,02,26,14.40
2017,05,23,02,27,14.30
2017,05,23,02,28,14.30
2017,05,23,02,29,14.30
2017,05,23,02,30,14.30
2017,05,23,02,31,14.20
2017,05,23,02,32,14.20
2017,05,23,02,33,14.10
2017,05,23,02,34,14.10
2017,05,23,02,35,14.00
2017,05,23,02,36,14.00
2017,05,23,02,37,13.90
2017,05,23,02,38,13.90
2017,05,23,02,39,13.90
2017,05,23,02,40,13.80
2017,05,23,02,41,13.80
2017,05,23,02,42,13.80
2017,05,23,02,43,13.70
2017,05,23,02,44,13.60
2017,05,23,02,45,13.60
2017,05,23,02,46,13.50
2017,05,23,02,47,13.40
2017,05,23,02,48,13.30
2017,05,23,02,49,13.30
2017,05,23,02,50,13.20
2017,05,23,02,51,13.20
2017,05,23,02,52,13.10
2017,05,23,02,53,13.10
2017,05,23,02,54,13.10
2017,05,23,02,55,13.00
2017,05,23,02,56,13.00
2017,05,23,02,57,12.90
2017,05,23,02,58,12.90
2017,05,23,02,59,12.80
2017,05,23,03,00,12.80
2017,05,23,03,01,12.80
2017,05,23,03,02,12.80
2017,05,23,03,03,12.70
2017,05,23,03,04,12.70
2017,05,23,03,05,12.70
2017,05,23,03,06,12.70
2017,05,23,03,07,12.70
2017,05,23,03,08,12.70
2017,05,23,03,09,12.70
2017,05,23,03,10,12.70
2017,05,23,03,11,12.60
2017,05,23,03,12,12.60
2017,05,23,03,13,12.60
2017,05,23,03,14,12.60
2017,05,23,03,15,12.60
2017,05,23,03,16,12.50
2017,05,23,03,17,12.50
2017,05,23,03,18,12.50
2017,05,23,03,19,12.50
2017,05,23,03,20,12.50
2017,05,23,03,21,12.50
2017,05,23,03,22,12.50
2017,05,23,03,23,12.50
2017,05,23,03,24,12.50
2017,05,23,03,25,12.40
2017,05,23,03,26,12.40
2017,05,23,03,27,12.40
2017,05,23,03,28,12.40
2017,05,23,03,29,12.40
2017,05,23,03,30,12.50
2017,05,23,03,31,12.50
2017,05,23,03,32,12.50
2017,05,23,03,33,12.50
2017,05,23,03,34,12.60
2017,05,23,03,35,12.60
2017,05,23,03,36,12.60
2017,05,23,03,37,12.60
2017,05,23,03,38,12.60
2017,05,23,03,39,12.50
2017,05,23,03,40,12.50
2017,05,23,03,41,12.50
2017,05,23,03,42,12.40
2017,05,23,03,43,12.40
2017,05,23,03,44,12.40
2017,05,23,03,45,12.30
2017,05,23,03,46,12.30
2017,05,23,03,47,12.20
2017,05,23,03,48,12.20
2017,05,23,03,49,12.20
2017,05,23,03,50,12.20
2017,05,23,03,51,12.10
2017,05,23,03,52,12.10
2017,05,23,03,53,12.10
2017,05,23,03,54,12.10
2017,05,23,03,55,12.00
2017,05,23,03,56,12.00
2017,05,23,03,57,11.90
2017,05,23,03,58,11.90
2017,05,23,03,59,11.90
2017,05,23,04,00,11.90
2017,05,23,04,01,11.90
2017,05,23,04,02,11.90
2017,05,23,04,03,11.90
2017,05,23,04,04,11.90
2017,05,23,04,05,11.80
2017,05,23,04,06,11.80
2017,05,23,04,07,11.80
2017,05,23,04,08,11.80
2017,05,23,04,09,11.80
2017,05,23,04,10,11.80
2017,05,23,04,11,11.80
2017,05,23,04,12,11.80
2017,05,23,04,13,11.70
2017,05,23,04,14,11.70
2017,05,23,04,15,11.70
2017,05,23,04,16,11.70
2017,05,23,04,17,11.70
2017,05,23,04,18,11.70
2017,05,23,04,19,11.70
2017,05,23,04,20,11.70
2017,05,23,04,21,11.70
2017,05,23,04,22,11.70
2017,05,23,04,23,11.70
2017,05,23,04,24,11.70
2017,05,23,04,25,11.70
2017,05,23,04,26,11.70
2017,05,23,04,27,11.70
2017,05,23,04,28,11.70
2017,05,23,04,29,11.70
2017,05,23,04,30,11.70
2017,05,23,04,31,11.80
2017,05,23,04,32,11.80
2017,05,23,04,33,11.80
2017,05,23,04,34,11.80
2017,05,23,04,35,11.90
2017,05,23,04,36,11.90
2017,05,23,04,37,11.90
2017,05,23,04,38,12.00
2017,05,23,04,39,12.00
2017,05,23,04,40,12.00
2017,05,23,04,41,12.10
2017,05,23,04,42,12.10
2017,05,23,04,43,12.00
2017,05,23,04,44,12.00
2017,05,23,04,45,12.00
2017,05,23,04,46,12.00
2017,05,23,04,47,11.90
2017,05,23,04,48,11.90
2017,05,23,04,49,11.80
2017,05,23,04,50,11.80
2017,05,23,04,51,11.70
2017,05,23,04,52,11.70
2017,05,23,04,53,11.70
2017,05,23,04,54,11.60
2017,05,23,04,55,11.60
2017,05,23,04,56,11.60
2017,05,23,04,57,11.60
2017,05,23,04,58,11.50
2017,05,23,04,59,11.50
2017,05,23,05,00,11.50
2017,05,23,05,01,11.40
2017,05,23,05,02,11.40
2017,05,23,05,03,11.40
2017,05,23,05,04,11.40
2017,05,23,05,05,11.40
2017,05,23,05,06,11.40
2017,05,23,05,07,11.40
2017,05,23,05,08,11.40
2017,05,23,05,09,11.40
2017,05,23,05,10,11.40
2017,05,23,05,11,11.40
2017,05,23,05,12,11.40
2017,05,23,05,13,11.40
2017,05,23,05,14,11.40
2017,05,23,05,15,11.40
2017,05,23,05,16,11.40
2017,05,23,05,17,11.40
2017,05,23,05,18,11.40
2017,05,23,05,19,11.40
2017,05,23,05,20,11.40
2017,05,23,05,21,11.40
2017,05,23,05,22,11.40
2017,05,23,05,23,11.40
2017,05,23,05,24,11.40
2017,05,23,05,25,11.40
2017,05,23,05,26,11.40
2017,05,23,05,27,11.40
2017,05,23,05,28,11.40
2017,05,23,05,29,11.40
2017,05,23,05,30,11.40
2017,05,23,05,31,11.40
2017,05,23,05,32,11.40
2017,05,23,05,33,11.40
2017,05,23,05,34,11.40
2017,05,23,05,35,11.30
2017,05,23,05,36,11.30
2017,05,23,05,37,11.30
2017,05,23,05,38,11.30
2017,05,23,05,39,11.30
2017,05,23,05,40,11.30
2017,05,23,05,41,11.20
2017,05,23,05,42,11.20
2017,05,23,05,43,11.20
2017,05,23,05,44,11.20
2017,05,23,05,45,11.20
2017,05,23,05,46,11.20
2017,05,23,05,47,11.10
2017,05,23,05,48,11.10
2017,05,23,05,49,11.10
2017,05,23,05,50,11.10
2017,05,23,05,51,11.10
2017,05,23,05,52,11.00
2017,05,23,05,53,11.00
2017,05,23,05,54,11.00
2017,05,23,05,55,10.90
2017,05,23,05,56,10.90
2017,05,23,05,57,10.90
2017,05,23,05,58,11.00
2017,05,23,05,59,11.00
2017,05,23,06,00,11.00
2017,05,23,06,01,11.10
2017,05,23,06,02,11.10
2017,05,23,06,03,11.20
2017,05,23,06,04,11.30
2017,05,23,06,05,11.30
2017,05,23,06,06,11.40
2017,05,23,06,07,11.50
2017,05,23,06,08,11.50
2017,05,23,06,09,11.60
2017,05,23,06,10,11.60
2017,05,23,06,11,11.60
2017,05,23,06,12,11.60
2017,05,23,06,13,11.70
2017,05,23,06,14,11.70
2017,05,23,06,15,11.70
2017,05,23,06,16,11.70
2017,05,23,06,17,11.70
2017,05,23,06,18,11.70
2017,05,23,06,19,11.70
2017,05,23,06,20,11.70
2017,05,23,06,21,11.70
2017,05,23,06,22,11.80
2017,05,23,06,23,11.90
2017,05,23,06,24,11.90
2017,05,23,06,25,12.00
2017,05,23,06,26,12.10
2017,05,23,06,27,12.20
2017,05,23,06,28,12.20
2017,05,23,06,29,12.30
2017,05,23,06,30,12.40
2017,05,23,06,31,12.50
2017,05,23,06,32,12.60
2017,05,23,06,33,12.60
2017,05,23,06,34,12.70
2017,05,23,06,35,12.80
2017,05,23,06,36,12.90
2017,05,23,06,37,13.00
2017,05,23,06,38,13.10
2017,05,23,06,39,13.10
2017,05,23,06,40,13.20
2017,05,23,06,41,13.30
2017,05,23,06,42,13.30
2017,05,23,06,43,13.40
2017,05,23,06,44,13.50
2017,05,23,06,45,13.60
2017,05,23,06,46,13.60
2017,05,23,06,47,13.70
2017,05,23,06,48,13.70
2017,05,23,06,49,13.80
2017,05,23,06,50,13.80
2017,05,23,06,51,13.80
2017,05,23,06,52,13.80
2017,05,23,06,53,13.80
2017,05,23,06,54,13.80
2017,05,23,06,55,13.80
2017,05,23,06,56,13.80
2017,05,23,06,57,13.80
2017,05,23,06,58,13.90
2017,05,23,06,59,13.90
2017,05,23,07,00,13.90
2017,05,23,07,01,13.90
2017,05,23,07,02,13.90
2017,05,23,07,03,13.90
2017,05,23,07,04,13.90
2017,05,23,07,05,14.00
2017,05,23,07,06,14.00
2017,05,23,07,07,14.10
2017,05,23,07,08,14.10
2017,05,23,07,09,14.20
2017,05,23,07,10,14.20
2017,05,23,07,11,14.30
2017,05,23,07,12,14.30
2017,05,23,07,13,14.40
2017,05,23,07,14,14.40
2017,05,23,07,15,14.50
2017,05,23,07,16,14.50
2017,05,23,07,17,14.50
2017,05,23,07,18,14.60
2017,05,23,07,19,14.60
2017,05,23,07,20,14.60
2017,05,23,07,21,14.60
2017,05,23,07,22,14.60
2017,05,23,07,23,14.60
2017,05,23,07,24,14.60
2017,05,23,07,25,14.60
2017,05,23,07,26,14.60
2017,05,23,07,27,14.60
2017,05,23,07,28,14.60
2017,05,23,07,29,14.60
2017,05,23,07,30,14.60
2017,05,23,07,31,14.60
2017,05,23,07,32,14.60
2017,05,23,07,33,14.70
2017,05,23,07,34,14.70
2017,05,23,07,35,14.70
2017,05,23,07,36,14.70
2017,05,23,07,37,14.70
2017,05,23,07,38,14.70
2017,05,23,07,39,14.80
2017,05,23,07,40,14.80
2017,05,23,07,41,14.80
2017,05,23,07,42,14.90
2017,05,23,07,43,14.90
2017,05,23,07,44,15.00
2017,05,23,07,45,15.00
2017,05,23,07,46,15.10
2017,05,23,07,47,15.10
2017,05,23,07,48,15.20
2017,05,23,07,49,15.20
2017,05,23,07,50,15.30
2017,05,23,07,51,15.30
2017,05,23,07,52,15.30
2017,05,23,07,53,15.40
2017,05,23,07,54,15.50
2017,05,23,07,55,15.60
2017,05,23,07,56,15.60
2017,05,23,07,57,15.60
2017,05,23,07,58,15.60
2017,05,23,07,59,15.60
2017,05,23,08,00,15.60
2017,05,23,08,01,15.70
2017,05,23,08,02,15.60
2017,05,23,08,03,15.60
2017,05,23,08,04,15.60
2017,05,23,08,05,15.60
2017,05,23,08,06,15.60
2017,05,23,08,07,15.70
2017,05,23,08,08,15.70
2017,05,23,08,09,15.70
2017,05,23,08,10,15.70
2017,05,23,08,11,15.70
2017,05,23,08,12,15.70
2017,05,23,08,13,15.70
2017,05,23,08,14,15.70
2017,05,23,08,15,15.70
2017,05,23,08,16,15.70
2017,05,23,08,17,15.80
2017,05,23,08,18,15.80
2017,05,23,08,19,15.80
2017,05,23,08,20,15.90
2017,05,23,08,21,15.90
2017,05,23,08,22,15.90
2017,05,23,08,23,15.90
2017,05,23,08,24,15.90
2017,05,23,08,25,15.90
2017,05,23,08,26,15.90
2017,05,23,08,27,15.90
2017,05,23,08,28,15.90
2017,05,23,08,29,16.00
2017,05,23,08,30,16.10
2017,05,23,08,31,16.10
2017,05,23,08,32,16.20
2017,05,23,08,33,16.20
2017,05,23,08,34,16.30
2017,05,23,08,35,16.30
2017,05,23,08,36,16.30
2017,05,23,08,37,16.40
2017,05,23,08,38,16.40
2017,05,23,08,39,16.50
2017,05,23,08,40,16.50
2017,05,23,08,41,16.60
2017,05,23,08,42,16.60
2017,05,23,08,43,16.60
2017,05,23,08,44,16.70
2017,05,23,08,45,16.70
2017,05,23,08,46,16.80
2017,05,23,08,47,16.80
2017,05,23,08,48,16.80
2017,05,23,08,49,16.90
2017,05,23,08,50,17.00
2017,05,23,08,51,17.10
2017,05,23,08,52,17.10
2017,05,23,08,53,17.20
2017,05,23,08,54,17.20
2017,05,23,08,55,17.30
2017,05,23,08,56,17.30
2017,05,23,08,57,17.30
2017,05,23,08,58,17.30
2017,05,23,08,59,17.30
2017,05,23,09,00,17.30
2017,05,23,09,01,17.30
2017,05,23,09,02,17.30
2017,05,23,09,03,17.30
2017,05,23,09,04,17.20
2017,05,23,09,05,17.20
2017,05,23,09,06,17.20
2017,05,23,09,07,17.10
2017,05,23,09,08,17.10
2017,05,23,09,09,17.20
2017,05,23,09,10,17.20
2017,05,23,09,11,17.20
2017,05,23,09,12,17.20
2017,05,23,09,13,17.20
2017,05,23,09,14,17.20
2017,05,23,09,15,17.20
2017,05,23,09,16,17.20
2017,05,23,09,17,17.40
2017,05,23,09,18,17.50
2017,05,23,09,19,17.60
2017,05,23,09,20,17.60
2017,05,23,09,21,17.60
2017,05,23,09,22,17.60
2017,05,23,09,23,17.60
2017,05,23,09,24,17.50
2017,05,23,09,25,17.50
2017,05,23,09,26,17.50
2017,05,23,09,27,17.40
2017,05,23,09,28,17.40
2017,05,23,09,29,17.40
2017,05,23,09,30,17.50
2017,05,23,09,31,17.50
2017,05,23,09,32,17.50
2017,05,23,09,33,17.50
2017,05,23,09,34,17.60
2017,05,23,09,35,17.60
2017,05,23,09,36,17.70
2017,05,23,09,37,17.70
2017,05,23,09,38,17.70
2017,05,23,09,39,17.80
2017,05,23,09,40,17.80
2017,05,23,09,41,17.90
2017,05,23,09,42,17.90
2017,05,23,09,43,18.00
2017,05,23,09,44,18.10
2017,05,23,09,45,18.10
2017,05,23,09,46,18.20
2017,05,23,09,47,18.20
2017,05,23,09,48,18.30
2017,05,23,09,49,18.30
2017,05,23,09,50,18.30
2017,05,23,09,51,18.30
2017,05,23,09,52,18.30
2017,05,23,09,53,18.30
2017,05,23,09,54,18.30
2017,05,23,09,55,18.30
2017,05,23,09,56,18.20
2017,05,23,09,57,18.20
2017,05,23,09,58,18.20
2017,05,23,09,59,18.30
2017,05,23,10,00,18.30
2017,05,23,10,01,18.40
2017,05,23,10,02,18.40
2017,05,23,10,03,18.50
2017,05,23,10,04,18.60
2017,05,23,10,05,18.70
2017,05,23,10,06,18.80
2017,05,23,10,07,19.00
2017,05,23,10,08,19.00
2017,05,23,10,09,19.10
2017,05,23,10,10,19.20
2017,05,23,10,11,19.20
2017,05,23,10,12,19.20
2017,05,23,10,13,19.10
2017,05,23,10,14,19.10
2017,05,23,10,15,19.20
2017,05,23,10,16,19.20
2017,05,23,10,17,19.10
2017,05,23,10,18,19.20
2017,05,23,10,19,19.20
2017,05,23,10,20,19.20
2017,05,23,10,21,19.10
2017,05,23,10,22,19.10
2017,05,23,10,23,19.10
2017,05,23,10,24,19.10
2017,05,23,10,25,19.10
2017,05,23,10,26,19.10
2017,05,23,10,27,19.00
2017,05,23,10,28,18.90
2017,05,23,10,29,18.90
2017,05,23,10,30,18.90
2017,05,23,10,31,18.90
2017,05,23,10,32,19.00
2017,05,23,10,33,19.10
2017,05,23,10,34,19.10
2017,05,23,10,35,19.30
2017,05,23,10,36,19.30
2017,05,23,10,37,19.40
2017,05,23,10,38,19.50
2017,05,23,10,39,19.60
2017,05,23,10,40,19.60
2017,05,23,10,41,19.60
2017,05,23,10,42,19.50
2017,05,23,10,43,19.50
2017,05,23,10,44,19.50
2017,05,23,10,45,19.50
2017,05,23,10,46,19.50
2017,05,23,10,47,19.60
2017,05,23,10,48,19.60
2017,05,23,10,49,19.60
2017,05,23,10,50,19.60
2017,05,23,10,51,19.60
2017,05,23,10,52,19.50
2017,05,23,10,53,19.50
2017,05,23,10,54,19.40
2017,05,23,10,55,19.40
2017,05,23,10,56,19.40
2017,05,23,10,57,19.30
2017,05,23,10,58,19.40
2017,05,23,10,59,19.40
2017,05,23,11,00,19.50
2017,05,23,11,01,19.50
2017,05,23,11,02,19.60
2017,05,23,11,03,19.70
2017,05,23,11,04,19.70
2017,05,23,11,05,19.80
2017,05,23,11,06,19.80
2017,05,23,11,07,19.90
2017,05,23,11,08,20.00
2017,05,23,11,09,20.10
2017,05,23,11,10,20.20
2017,05,23,11,11,20.30
2017,05,23,11,12,20.30
2017,05,23,11,13,20.30
2017,05,23,11,14,20.30
2017,05,23,11,15,20.30
2017,05,23,11,16,20.30
2017,05,23,11,17,20.20
2017,05,23,11,18,20.20
2017,05,23,11,19,20.20
2017,05,23,11,20,20.20
2017,05,23,11,21,20.30
2017,05,23,11,22,20.40
2017,05,23,11,23,20.50
2017,05,23,11,24,20.60
2017,05,23,11,25,20.70
2017,05,23,11,26,20.70
2017,05,23,11,27,20.70
2017,05,23,11,28,20.80
2017,05,23,11,29,20.80
2017,05,23,11,30,20.80
2017,05,23,11,31,20.80
2017,05,23,11,32,20.80
2017,05,23,11,33,20.80
2017,05,23,11,34,20.80
2017,05,23,11,35,20.80
2017,05,23,11,36,20.70
2017,05,23,11,37,20.70
2017,05,23,11,38,20.60
2017,05,23,11,39,20.60
2017,05,23,11,40,20.60
2017,05,23,11,41,20.60
2017,05,23,11,42,20.60
2017,05,23,11,43,20.60
2017,05,23,11,44,20.60
2017,05,23,11,45,20.60
2017,05,23,11,46,20.60
2017,05,23,11,47,20.60
2017,05,23,11,48,20.50
2017,05,23,11,49,20.40
2017,05,23,11,50,20.40
2017,05,23,11,51,20.30
2017,05,23,11,52,20.20
2017,05,23,11,53,20.10
2017,05,23,11,54,20.00
2017,05,23,11,55,19.90
2017,05,23,11,56,19.90
2017,05,23,11,57,19.80
2017,05,23,11,58,19.80
2017,05,23,11,59,19.80
2017,05,23,12,00,19.70
2017,05,23,12,01,19.70
2017,05,23,12,02,19.70
2017,05,23,12,03,19.70
2017,05,23,12,04,19.70
2017,05,23,12,05,19.70
2017,05,23,12,06,19.70
2017,05,23,12,07,19.70
2017,05,23,12,08,19.70
2017,05,23,12,09,19.70
2017,05,23,12,10,19.70
2017,05,23,12,11,19.70
2017,05,23,12,12,19.70
2017,05,23,12,13,19.80
2017,05,23,12,14,19.80
2017,05,23,12,15,19.90
2017,05,23,12,16,20.00
2017,05,23,12,17,20.10
2017,05,23,12,18,20.30
2017,05,23,12,19,20.40
2017,05,23,12,20,20.60
2017,05,23,12,21,20.70
2017,05,23,12,22,20.80
2017,05,23,12,23,20.90
2017,05,23,12,24,21.00
2017,05,23,12,25,21.00
2017,05,23,12,26,21.00
2017,05,23,12,27,21.00
2017,05,23,12,28,21.00
2017,05,23,12,29,21.10
2017,05,23,12,30,21.00
2017,05,23,12,31,21.00
2017,05,23,12,32,21.00
2017,05,23,12,33,20.90
2017,05,23,12,34,20.90
2017,05,23,12,35,20.90
2017,05,23,12,36,20.90
2017,05,23,12,37,20.90
2017,05,23,12,38,20.80
2017,05,23,12,39,20.80
2017,05,23,12,40,20.90
2017,05,23,12,41,20.80
2017,05,23,12,42,20.80
2017,05,23,12,43,20.70
2017,05,23,12,44,20.70
2017,05,23,12,45,20.70
2017,05,23,12,46,20.70
2017,05,23,12,47,20.70
2017,05,23,12,48,20.80
2017,05,23,12,49,20.80
2017,05,23,12,50,20.70
2017,05,23,12,51,20.60
2017,05,23,12,52,20.50
2017,05,23,12,53,20.50
2017,05,23,12,54,20.60
2017,05,23,12,55,20.60
2017,05,23,12,56,20.70
2017,05,23,12,57,20.70
2017,05,23,12,58,20.80
2017,05,23,12,59,20.80
2017,05,23,13,00,20.70
2017,05,23,13,01,20.60
2017,05,23,13,02,20.50
2017,05,23,13,03,20.40
2017,05,23,13,04,20.40
2017,05,23,13,05,20.30
2017,05,23,13,06,20.40
2017,05,23,13,07,20.40
2017,05,23,13,08,20.40
2017,05,23,13,09,20.40
2017,05,23,13,10,20.40
2017,05,23,13,11,20.40
2017,05,23,13,12,20.50
2017,05,23,13,13,20.50
2017,05,23,13,14,20.50
2017,05,23,13,15,20.60
2017,05,23,13,16,20.60
2017,05,23,13,17,20.60
2017,05,23,13,18,20.50
2017,05,23,13,19,20.40
2017,05,23,13,20,20.40
2017,05,23,13,21,20.30
2017,05,23,13,22,20.20
2017,05,23,13,23,20.20
2017,05,23,13,24,20.10
2017,05,23,13,25,20.10
2017,05,23,13,26,20.10
2017,05,23,13,27,20.10
2017,05,23,13,28,20.10
2017,05,23,13,29,20.00
2017,05,23,13,30,19.90
2017,05,23,13,31,19.90
2017,05,23,13,32,19.80
2017,05,23,13,33,19.80
2017,05,23,13,34,19.70
2017,05,23,13,35,19.70
2017,05,23,13,36,19.70
2017,05,23,13,37,19.80
2017,05,23,13,38,19.80
2017,05,23,13,39,19.90
2017,05,23,13,40,20.10
2017,05,23,13,41,20.20
2017,05,23,13,42,20.30
2017,05,23,13,43,20.40
2017,05,23,13,44,20.60
2017,05,23,13,45,20.80
2017,05,23,13,46,21.00
2017,05,23,13,47,21.20
2017,05,23,13,48,21.40
2017,05,23,13,49,21.70
2017,05,23,13,50,21.80
2017,05,23,13,51,22.00
2017,05,23,13,52,22.10
2017,05,23,13,53,22.20
2017,05,23,13,54,22.30
2017,05,23,13,55,22.40
2017,05,23,13,56,22.50
2017,05,23,13,57,22.50
2017,05,23,13,58,22.60
2017,05,23,13,59,22.60
2017,05,23,14,00,22.60
2017,05,23,14,01,22.70
2017,05,23,14,02,22.70
2017,05,23,14,03,22.70
2017,05,23,14,04,22.70
2017,05,23,14,05,22.60
2017,05,23,14,06,22.60
2017,05,23,14,07,22.50
2017,05,23,14,08,22.50
2017,05,23,14,09,22.50
2017,05,23,14,10,22.50
2017,05,23,14,11,22.50
2017,05,23,14,12,22.50
2017,05,23,14,13,22.60
2017,05,23,14,14,22.60
2017,05,23,14,15,22.60
2017,05,23,14,16,22.60
2017,05,23,14,17,22.70
2017,05,23,14,18,22.70
2017,05,23,14,19,22.70
2017,05,23,14,20,22.80
2017,05,23,14,21,22.70
2017,05,23,14,22,22.70
2017,05,23,14,23,22.70
2017,05,23,14,24,22.70
2017,05,23,14,25,22.70
2017,05,23,14,26,22.70
2017,05,23,14,27,22.60
2017,05,23,14,28,22.70
2017,05,23,14,29,22.70
2017,05,23,14,30,22.70
2017,05,23,14,31,22.70
2017,05,23,14,32,22.60
2017,05,23,14,33,22.50
2017,05,23,14,34,22.50
2017,05,23,14,35,22.50
2017,05,23,14,36,22.60
2017,05,23,14,37,22.60
2017,05,23,14,38,22.70
2017,05,23,14,39,22.70
2017,05,23,14,40,22.70
2017,05,23,14,41,22.60
2017,05,23,14,42,22.60
2017,05,23,14,43,22.70
2017,05,23,14,44,22.70
2017,05,23,14,45,22.70
2017,05,23,14,46,22.70
2017,05,23,14,47,22.70
2017,05,23,14,48,22.70
2017,05,23,14,49,22.70
2017,05,23,14,50,22.70
2017,05,23,14,51,22.60
2017,05,23,14,52,22.40
2017,05,23,14,53,22.30
2017,05,23,14,54,22.20
2017,05,23,14,55,22.00
2017,05,23,14,56,22.00
2017,05,23,14,57,22.00
2017,05,23,14,58,22.10
2017,05,23,14,59,22.10
2017,05,23,15,00,22.20
2017,05,23,15,01,22.20
2017,05,23,15,02,22.10
2017,05,23,15,03,22.00
2017,05,23,15,04,22.00
2017,05,23,15,05,22.10
2017,05,23,15,06,22.10
2017,05,23,15,07,22.10
2017,05,23,15,08,22.10
2017,05,23,15,09,22.20
2017,05,23,15,10,22.20
2017,05,23,15,11,22.20
2017,05,23,15,12,22.20
2017,05,23,15,13,22.10
2017,05,23,15,14,22.00
2017,05,23,15,15,21.90
2017,05,23,15,16,21.90
2017,05,23,15,17,21.80
2017,05,23,15,18,21.80
2017,05,23,15,19,21.80
2017,05,23,15,20,21.90
2017,05,23,15,21,21.90
2017,05,23,15,22,22.00
2017,05,23,15,23,22.00
2017,05,23,15,24,22.00
2017,05,23,15,25,22.00
2017,05,23,15,26,22.00
2017,05,23,15,27,21.90
2017,05,23,15,28,21.80
2017,05,23,15,29,21.80
2017,05,23,15,30,21.80
2017,05,23,15,31,21.80
2017,05,23,15,32,21.80
2017,05,23,15,33,21.90
2017,05,23,15,34,21.90
2017,05,23,15,35,21.90
2017,05,23,15,36,22.00
2017,05,23,15,37,22.00
2017,05,23,15,38,22.10
2017,05,23,15,39,22.00
2017,05,23,15,40,21.90
2017,05,23,15,41,21.80
2017,05,23,15,42,21.70
2017,05,23,15,43,21.60
2017,05,23,15,44,21.50
2017,05,23,15,45,21.40
2017,05,23,15,46,21.30
2017,05,23,15,47,21.20
2017,05,23,15,48,21.10
2017,05,23,15,49,21.10
2017,05,23,15,50,21.00
2017,05,23,15,51,21.00
2017,05,23,15,52,21.00
2017,05,23,15,53,21.00
2017,05,23,15,54,21.00
2017,05,23,15,55,21.00
2017,05,23,15,56,21.00
2017,05,23,15,57,21.10
2017,05,23,15,58,21.20
2017,05,23,15,59,21.20
2017,05,23,16,00,21.30
2017,05,23,16,01,21.30
2017,05,23,16,02,21.20
2017,05,23,16,03,20.90
2017,05,23,16,04,20.70
2017,05,23,16,05,20.40
2017,05,23,16,06,20.20
2017,05,23,16,07,19.90
2017,05,23,16,08,19.60
2017,05,23,16,09,19.50
2017,05,23,16,10,19.40
2017,05,23,16,11,19.20
2017,05,23,16,12,19.10
2017,05,23,16,13,19.00
2017,05,23,16,14,18.80
2017,05,23,16,15,18.60
2017,05,23,16,16,18.40
2017,05,23,16,17,18.10
2017,05,23,16,18,17.90
2017,05,23,16,19,17.60
2017,05,23,16,20,17.40
2017,05,23,16,21,17.20
2017,05,23,16,22,17.00
2017,05,23,16,23,16.80
2017,05,23,16,24,16.70
2017,05,23,16,25,16.50
2017,05,23,16,26,16.40
2017,05,23,16,27,16.30
2017,05,23,16,28,16.20
2017,05,23,16,29,16.10
2017,05,23,16,30,16.10
2017,05,23,16,31,16.00
2017,05,23,16,32,16.00
2017,05,23,16,33,15.90
2017,05,23,16,34,15.90
2017,05,23,16,35,15.80
2017,05,23,16,36,15.80
2017,05,23,16,37,15.80
2017,05,23,16,38,15.70
2017,05,23,16,39,15.70
2017,05,23,16,40,15.80
2017,05,23,16,41,15.90
2017,05,23,16,42,15.90
2017,05,23,16,43,16.00
2017,05,23,16,44,16.10
2017,05,23,16,45,16.00
2017,05,23,16,46,16.00
2017,05,23,16,47,16.00
2017,05,23,16,48,16.00
2017,05,23,16,49,16.00
2017,05,23,16,50,15.90
2017,05,23,16,51,15.80
2017,05,23,16,52,15.70
2017,05,23,16,53,15.70
2017,05,23,16,54,15.60
2017,05,23,16,55,15.50
2017,05,23,16,56,15.40
2017,05,23,16,57,15.40
2017,05,23,16,58,15.30
2017,05,23,16,59,15.40
2017,05,23,17,00,15.40
2017,05,23,17,01,15.40
2017,05,23,17,02,15.40
2017,05,23,17,03,15.40
2017,05,23,17,04,15.40
2017,05,23,17,05,15.40
2017,05,23,17,06,15.50
2017,05,23,17,07,15.50
2017,05,23,17,08,15.50
2017,05,23,17,09,15.60
2017,05,23,17,10,15.60
2017,05,23,17,11,15.60
2017,05,23,17,12,15.50
2017,05,23,17,13,15.40
2017,05,23,17,14,15.30
2017,05,23,17,15,15.30
2017,05,23,17,16,15.30
2017,05,23,17,17,15.30
2017,05,23,17,18,15.30
2017,05,23,17,19,15.20